FW3893 Weather Reports


time (UTC)temp
C
wind
direction
speed
KPH
gust
KPH
rain 1hr
cm
rain 24hr
cm
rain mn
cm
humidity
%
barometer
mb
20260507204842 15 0.0 0.0 0.00 0.00 0.00 80 1009.8
20260507203844 14 0.0 0.0 0.00 0.00 0.00 81 1009.6
20260507202815 14 0.0 0.0 0.00 0.00 0.00 81 1009.6
20260507201817 14 0.0 0.0 0.00 0.00 0.00 82 1009.4
20260507200819 14 0.0 0.0 0.00 0.00 0.00 81 1009.4
20260507195821 14 0.0 0.0 0.00 0.00 0.00 81 1009.6
20260507194843 15 0.0 0.0 0.00 0.00 0.00 81 1009.6
20260507193816 15 0.0 0.0 0.00 0.00 0.00 80 1009.3
20260507192817 15 0.0 0.0 0.00 0.00 0.00 79 1009.3
20260507191841 16 0.0 0.0 0.00 0.00 0.00 79 1009.1
20260507190842 16 0.0 0.0 0.00 0.00 0.00 77 1009.1
20260507185815 16 0.0 0.0 0.00 0.00 0.00 75 1008.8
20260507184816 16 0.0 0.0 0.00 0.00 0.00 73 1008.8
20260507183819 17 0.0 0.0 0.00 0.00 0.00 72 1008.7
20260507182821 17 0.0 0.0 0.00 0.00 0.00 70 1008.7
20260507181824 18 0.0 0.0 0.00 0.00 0.00 68 1008.8
20260507180815 18 0.0 0.0 0.00 0.00 0.00 67 1008.8
20260507175837 19 0.0 0.0 0.00 0.00 0.00 66 1008.4
20260507174820 19 0.0 0.0 0.00 0.00 0.00 65 1008.4
20260507173821 19 0.0 0.0 0.00 0.00 0.00 65 1008.4
20260507172823 19 0.0 0.0 0.00 0.00 0.00 65 1008.3
20260507171815 19 0.0 0.0 0.00 0.00 0.00 64 1008.0
20260507170817 20 0.0 0.0 0.00 0.00 0.00 66 1008.0
20260507165820 19 0.0 0.0 0.00 0.00 0.00 67 1008.3
20260507164822 19 0.0 0.0 0.00 0.00 0.00 67 1008.3
20260507163844 19 0.0 0.0 0.00 0.00 0.00 65 1008.3
20260507162816 20 0.0 0.0 0.00 0.00 0.00 64 1008.3
20260507161818 20 0.0 0.0 0.00 0.00 0.00 61 1008.4
20260507160821 20 0.0 0.0 0.00 0.00 0.00 60 1008.4
20260507155822 20 0.0 0.0 0.00 0.00 0.00 58 1008.1
20260507154835 20 0.0 0.0 0.00 0.00 0.00 57 1008.2
20260507153816 20 0.0 0.0 0.00 0.00 0.00 57 1008.0
20260507152819 20 0.0 0.0 0.00 0.00 0.00 58 1008.0
20260507151842 20 0.0 0.0 0.00 0.00 0.00 58 1008.0
20260507150823 20 0.0 0.0 0.00 0.00 0.00 59 1008.0
20260507145816 20 0.0 0.0 0.00 0.00 0.00 58 1008.2
20260507144817 20 0.0 0.0 0.00 0.00 0.00 61 1008.2
20260507143839 20 0.0 0.0 0.00 0.00 0.00 59 1008.3
20260507142820 21 0.0 0.0 0.00 0.00 0.00 60 1008.4
20260507141823 20 0.0 0.0 0.00 0.00 0.00 61 1008.3
20260507140815 20 0.0 0.0 0.00 0.00 0.00 62 1008.3
20260507135838 20 0.0 0.0 0.00 0.00 0.00 62 1008.4
20260507134820 20 0.0 0.0 0.00 0.00 0.00 59 1008.3
20260507133822 20 0.0 0.0 0.00 0.00 0.00 60 1008.5
20260507132823 20 0.0 0.0 0.00 0.00 0.00 61 1008.5
20260507131856 20 0.0 0.0 0.00 0.00 0.00 63 1008.6
20260507130838 19 0.0 0.0 0.00 0.00 0.00 62 1008.6
20260507125820 20 0.0 0.0 0.00 0.00 0.00 63 1008.7
20260507124821 20 0.0 0.0 0.00 0.00 0.00 61 1008.7
20260507123843 20 0.0 0.0 0.00 0.00 0.00 64 1008.7
20260507122814 19 0.0 0.0 0.00 0.00 0.00 65 1008.7
20260507121817 18 0.0 0.0 0.00 0.00 0.00 70 1009.0
20260507120821 18 0.0 0.0 0.00 0.00 0.00 73 1009.0
20260507115843 17 0.0 0.0 0.00 0.00 0.00 75 1009.0
20260507114815 18 0.0 0.0 0.00 0.00 0.00 73 1009.0
20260507113817 18 0.0 0.0 0.00 0.00 0.00 68 1008.9
20260507112821 18 0.0 0.0 0.00 0.00 0.00 66 1008.9
20260507111822 19 0.0 0.0 0.00 0.00 0.00 61 1009.1
20260507110824 20 0.0 0.0 0.00 0.00 0.00 60 1009.1
20260507105817 20 0.0 0.0 0.00 0.00 0.00 59 1009.2
20260507104820 20 0.0 0.0 0.00 0.00 0.00 60 1009.2
20260507103824 20 0.0 0.0 0.00 0.00 0.00 60 1009.1
20260507102815 20 0.0 0.0 0.00 0.00 0.00 61 1009.1
20260507101817 20 0.0 0.0 0.00 0.00 0.00 65 1009.5
20260507100821 19 0.0 0.0 0.00 0.00 0.00 64 1009.5
20260507095823 19 0.0 0.0 0.00 0.00 0.00 64 1009.2
20260507094825 18 0.0 0.0 0.00 0.00 0.00 64 1009.2
20260507093816 18 0.0 0.0 0.00 0.00 0.00 69 1009.1
20260507092818 18 0.0 0.0 0.00 0.00 0.00 70 1009.1
20260507091819 17 0.0 0.0 0.00 0.00 0.00 70 1009.3
20260507090821 17 0.0 0.0 0.00 0.00 0.00 69 1009.3
20260507085823 17 0.0 0.0 0.00 0.00 0.00 69 1009.2
20260507084836 17 0.0 0.0 0.00 0.00 0.00 68 1009.2
20260507083817 17 0.0 0.0 0.00 0.00 0.00 68 1009.2
20260507082820 17 0.0 0.0 0.00 0.00 0.00 69 1009.3
20260507081823 17 0.0 0.0 0.00 0.00 0.00 69 1009.0
20260507080815 17 0.0 0.0 0.00 0.00 0.00 69 1008.9
20260507075818 17 0.0 0.0 0.00 0.00 0.00 69 1009.0
20260507074821 17 0.0 0.0 0.00 0.00 0.00 70 1009.0
20260507073823 16 0.0 0.0 0.00 0.00 0.00 71 1009.0
20260507072825 16 0.0 0.0 0.00 0.00 0.00 71 1009.0
20260507071817 16 0.0 0.0 0.00 0.00 0.00 73 1008.7
20260507070819 16 0.0 0.0 0.00 0.00 0.00 73 1008.7
20260507065820 15 0.0 0.0 0.00 0.00 0.00 75 1008.4
20260507064843 15 0.0 0.0 0.00 0.00 0.00 76 1008.4
20260507063825 15 0.0 0.0 0.00 0.00 0.00 78 1008.5
20260507062816 15 0.0 0.0 0.00 0.00 0.00 78 1008.5
20260507061818 14 0.0 0.0 0.00 0.00 0.00 82 1008.6
20260507060820 12 0.0 0.0 0.00 0.00 0.00 84 1008.6
20260507055822 11 0.0 0.0 0.00 0.00 0.00 84 1008.5
20260507054824 11 0.0 0.0 0.00 0.00 0.00 84 1008.5
20260507053836 11 0.0 0.0 0.00 0.00 0.00 84 1008.2
20260507052839 11 0.0 0.0 0.00 0.00 0.00 86 1008.2
20260507051822 10 0.0 0.0 0.00 0.00 0.00 86 1008.0
20260507050824 10 0.0 0.0 0.00 0.00 0.00 86 1008.0
20260507045816 9 0.0 0.0 0.00 0.00 0.00 86 1007.7
20260507044818 8 0.0 0.0 0.00 0.00 0.00 86 1007.7
20260507043821 8 0.0 0.0 0.00 0.00 0.00 86 1007.5
20260507042824 8 0.0 0.0 0.00 0.00 0.00 86 1007.5
20260507041816 8 0.0 0.0 0.00 0.00 0.00 85 1007.2
20260507040818 8 0.0 0.0 0.00 0.00 0.00 85 1007.2
20260507035821 8 0.0 0.0 0.00 0.00 0.00 85 1007.3
20260507034822 8 0.0 0.0 0.00 0.00 0.00 85 1007.4
20260507033825 8 0.0 0.0 0.00 0.00 0.00 84 1007.3
20260507032816 8 0.0 0.0 0.00 0.00 0.00 83 1007.3
20260507031819 9 0.0 0.0 0.00 0.00 0.00 83 1007.4
20260507030820 9 0.0 0.0 0.00 0.00 0.00 82 1007.4
20260507025843 9 0.0 0.0 0.00 0.00 0.00 83 1007.3
20260507024815 10 0.0 0.0 0.00 0.00 0.00 82 1007.3
20260507023817 10 0.0 0.0 0.00 0.00 0.00 82 1007.2
20260507022820 10 0.0 0.0 0.00 0.00 0.00 82 1007.2
20260507021822 10 0.0 0.0 0.00 0.00 0.00 82 1007.2
20260507020823 10 0.0 0.0 0.00 0.00 0.00 82 1007.2
20260507015816 10 0.0 0.0 0.00 0.00 0.00 81 1007.2
20260507014817 10 0.0 0.0 0.00 0.00 0.00 82 1007.2
20260507013840 10 0.0 0.0 0.00 0.00 0.00 82 1007.1
20260507012822 10 0.0 0.0 0.00 0.00 0.00 82 1007.1
20260507011824 10 0.0 0.0 0.00 0.00 0.00 81 1007.0
20260507010816 10 0.0 0.0 0.00 0.00 0.00 81 1007.0
20260507005818 10 0.0 0.0 0.00 0.00 0.00 82 1006.8
20260507004841 10 0.0 0.0 0.00 0.00 0.00 81 1006.8
20260507003822 10 0.0 0.0 0.00 0.00 0.00 81 1007.0
20260507002824 10 0.0 0.0 0.00 0.00 0.00 81 1007.0
20260507001836 10 0.0 0.0 0.00 0.00 0.00 81 1006.6
20260507000819 10 0.0 0.0 0.00 0.00 0.00 80 1006.6
20260506235822 10 0.0 0.0 0.00 0.00 0.00 80 1006.7
20260506234824 10 0.0 0.0 0.00 0.00 0.00 80 1006.7
20260506233816 10 0.0 0.0 0.00 0.00 0.00 81 1006.7
20260506232838 10 0.0 0.0 0.00 0.00 0.00 82 1006.7
20260506231840 10 0.0 0.0 0.00 0.00 0.00 82 1006.6
20260506230823 10 0.0 0.0 0.00 0.00 0.00 82 1006.6
20260506225825 10 0.0 0.0 0.00 0.00 0.00 82 1006.4
20260506224818 10 0.0 0.0 0.00 0.00 0.00 81 1006.3
20260506223821 10 0.0 0.0 0.00 0.00 0.00 80 1006.5
20260506222823 10 0.0 0.0 0.00 0.00 0.00 80 1006.5
20260506221815 10 0.0 0.0 0.00 0.00 0.00 79 1006.5
20260506220818 10 0.0 0.0 0.00 0.00 0.00 78 1006.5
20260506215840 11 0.0 0.0 0.00 0.00 0.00 79 1006.4
20260506214822 11 0.0 0.0 0.00 0.00 0.00 78 1006.4
20260506213824 11 0.0 0.0 0.00 0.00 0.00 77 1006.4
20260506212816 11 0.0 0.0 0.00 0.00 0.00 76 1006.5
20260506211818 11 0.0 0.0 0.00 0.00 0.00 75 1006.5
20260506210842 11 0.0 0.0 0.00 0.00 0.00 74 1006.5
20260506205825 12 0.0 0.0 0.00 0.00 0.00 72 1006.3